Snowfall_Accumulation
nan nan nan nan nan nan nan nan nan nan nan nan nan nan nan nan nan 0.0 0.0 0.0 0.0 0.4 0.0 0.0 0.0 0.0 0.0 0.0 0.4 0.0 0.5 0.1 0.1 0.2 0.3 0.1 0.7 1.1 0.7 0.1 0.1 0.4 2.8 2.1 1.0 1.9 1.1 0.0 0.0 0.7 1.1 0.2 0.1 0.2
nan nan nan nan nan nan nan nan nan nan nan nan nan nan nan nan nan nan 0.0 0.0 0.0 0.0 0.1 0.0 0.0 0.0 0.0 0.0 0.0 0.0 0.1 0.0 0.5 0.1 0.2 0.2 1.1 0.6 0.4 3.1 0.2 1.8 0.6 1.7 0.6 1.3 0.2 0.1 0.3 0.1 0.1 0.1 0.3 0.2
nan nan nan nan nan nan nan nan nan nan nan nan nan nan nan nan nan nan 0.0 0.0 0.0 0.1 0.0 0.0 0.0 0.0 0.0 0.0 0.0 0.0 0.0 0.0 0.0 0.0 0.3 0.1 0.7 0.1 1.4 0.8 0.4 0.2 0.1 0.8 0.3 0.3 0.2 0.2 0.1 0.1 0.1 0.4 0.2 0.2
nan nan nan nan nan nan nan nan nan nan nan nan nan nan nan nan nan nan 0.0 0.0 0.0 0.0 3.2 0.3 0.0 0.0 0.0 0.0 0.0 0.0 0.0 0.0 0.0 0.0 0.1 0.5 1.4 0.1 1.5 0.5 0.7 1.0 0.2 0.3 0.5 1.3 0.1 0.2 0.5 0.3 0.3 0.3 0.3 0.4
nan nan nan nan nan nan nan nan nan nan nan nan nan nan nan nan nan nan 0.0 0.0 0.0 0.1 1.3 0.3 0.0 0.0 0.0 0.0 0.0 0.0 0.0 0.0 0.0 0.1 0.3 0.5 0.0 0.8 0.8 0.4 0.9 0.4 1.9 2.3 3.3 0.3 0.2 0.9 0.6 0.2 0.3 0.5 0.2 0.1
nan nan nan nan nan nan nan nan nan nan nan nan nan nan nan nan nan 0.0 1.8 0.0 0.0 0.0 2.1 2.9 0.0 0.0 0.0 0.0 0.0 0.0 0.0 0.0 0.0 0.0 0.1 0.0 0.0 0.2 3.6 1.3 0.4 0.3 0.4 0.3 1.1 0.1 0.2 0.5 0.3 0.1 0.2 0.3 0.1 0.1
nan nan nan nan nan nan nan nan nan nan nan nan nan nan nan nan 0.0 0.1 0.1 0.0 nan 0.0 0.3 2.2 2.1 0.0 0.0 0.0 0.0 0.0 0.0 0.0 0.0 0.0 0.1 0.0 0.0 0.3 1.9 3.0 0.8 1.1 1.0 0.2 0.1 0.0 0.5 0.3 1.2 0.2 0.1 0.1 0.0 0.0
nan nan nan nan nan nan nan nan nan nan nan nan nan nan nan nan nan 0.0 0.0 nan nan 0.0 0.0 2.1 1.1 1.3 0.0 0.1 0.1 0.0 0.0 0.0 0.0 0.0 0.1 0.0 0.2 0.7 3.9 1.6 0.7 0.4 0.3 0.2 0.1 0.0 0.1 0.0 0.0 0.0 0.0 0.0 0.0 0.0
nan nan nan nan nan nan nan nan nan nan nan nan nan nan 0.0 0.0 0.1 0.0 nan nan 0.0 0.2 1.2 0.7 0.9 5.1 0.0 0.0 0.1 0.0 0.0 1.7 0.1 0.4 0.2 0.0 0.8 2.7 2.6 0.4 0.4 0.2 0.2 0.2 0.0 0.0 0.0 0.0 0.0 0.1 0.1 0.1 0.1 0.0
nan nan nan nan nan nan nan nan nan nan nan nan 0.0 0.1 8.1 0.0 nan nan 0.0 1.3 0.5 0.2 0.0 0.6 0.1 0.7 0.2 0.3 0.3 0.3 0.2 0.5 0.8 0.6 0.1 0.4 1.6 0.1 0.1 0.1 0.1 0.0 0.0 0.0 0.0 0.0 0.0 0.0 0.0 0.2 0.3 0.3 0.2 0.2
nan nan nan nan nan nan nan nan nan nan nan 0.0 0.7 0.7 0.0 nan 0.0 1.2 4.0 3.4 1.8 1.9 0.1 0.3 0.2 0.9 0.0 1.0 0.6 0.2 1.0 0.4 0.9 0.4 1.0 1.3 1.4 0.5 0.1 0.1 0.0 0.0 0.0 0.0 0.0 0.0 0.0 0.0 0.0 0.5 0.9 0.7 0.6 0.4
nan nan nan nan nan nan nan nan nan 0.0 0.0 0.0 0.0 0.0 0.0 0.3 1.9 0.9 2.1 1.0 0.7 0.3 0.5 0.4 0.3 0.1 0.2 0.0 0.5 0.5 0.6 1.1 1.7 0.5 2.5 2.4 1.6 0.0 0.0 0.0 0.0 0.0 0.0 0.0 0.0 0.0 0.0 0.0 0.1 0.3 0.7 0.8 1.0 1.9
nan nan nan nan nan nan nan nan nan nan nan 0.0 0.0 0.3 0.8 2.9 26.3 2.5 4.4 2.0 5.0 0.6 0.9 0.6 2.6 0.2 0.3 0.0 0.6 0.4 2.7 3.4 0.4 7.4 1.4 2.0 0.2 0.1 0.1 0.0 0.1 0.0 0.0 0.0 0.1 0.0 0.1 0.4 0.4 1.6 2.4 4.6 5.2 5.8
nan nan nan nan nan nan nan nan nan 0.0 0.0 1.0 1.6 30.3 3.9 5.0 2.0 2.5 2.1 2.3 1.1 0.9 0.5 0.4 0.5 0.7 0.7 0.9 1.8 3.4 2.2 0.7 5.9 3.7 2.4 1.5 0.3 0.5 0.3 0.3 0.1 0.7 1.1 1.6 1.7 2.5 3.5 5.1 9.5 8.8 9.5 10.5 9.4 9.6
nan nan nan nan nan nan nan nan nan 0.0 0.2 2.0 1.1 14.7 5.9 2.7 2.9 2.9 2.1 1.8 1.1 0.4 0.5 0.5 0.6 0.5 1.5 3.4 1.1 0.7 4.2 5.0 2.6 2.7 3.2 2.0 0.7 0.8 1.3 1.4 2.1 3.3 5.1 4.2 3.9 5.2 7.9 7.4 7.7 7.0 9.1 7.9 5.8 8.0
nan nan 0.0 nan nan nan nan nan 0.0 0.0 0.7 0.9 0.6 3.4 2.8 5.7 12.0 8.3 5.1 3.3 0.4 0.7 0.4 0.3 1.0 3.1 3.7 2.0 1.1 2.4 0.9 2.1 4.4 5.0 5.1 3.1 2.6 3.3 2.5 2.4 3.4 3.7 3.5 4.6 5.3 5.5 5.9 6.9 6.5 6.4 5.8 6.5 9.5 7.8
nan 0.0 nan nan nan nan nan 0.0 0.5 0.6 1.5 0.3 11.4 8.9 6.3 5.4 10.2 7.8 3.2 1.1 0.4 0.7 4.5 0.7 2.4 1.4 0.7 2.6 0.7 1.3 6.1 4.9 7.2 5.9 3.7 2.2 3.6 4.0 4.7 4.3 5.0 3.6 3.8 4.3 5.1 4.7 5.0 6.1 5.2 3.1 3.1 4.9 2.8 3.1
0.0 0.0 nan nan nan nan 0.7 0.7 1.3 1.3 0.7 2.9 10.8 11.9 4.1 4.0 7.0 4.0 2.0 0.5 0.4 0.4 0.5 0.3 0.3 0.8 6.0 2.8 4.1 3.8 5.0 8.2 5.5 5.1 4.3 3.5 3.1 3.6 2.2 3.0 3.5 2.8 3.2 4.7 3.8 3.3 3.4 3.1 1.9 2.1 1.1 0.9 1.0 0.9
0.0 0.0 nan nan 0.0 0.3 1.5 0.8 0.4 2.0 5.9 4.1 3.6 2.2 2.2 5.3 2.1 1.4 1.3 0.5 0.2 0.1 0.4 0.7 1.1 2.4 4.3 2.9 7.1 9.1 8.6 5.4 6.1 4.8 4.5 3.3 2.9 3.4 3.3 2.6 2.9 3.9 3.3 2.8 1.0 1.4 1.2 0.3 0.6 0.7 0.8 0.7 1.7 1.6
nan nan nan nan nan 0.2 0.2 1.1 0.1 0.2 1.9 3.0 1.1 1.4 1.4 3.0 1.3 3.7 2.0 0.4 0.2 0.5 0.8 1.2 3.6 3.5 2.5 2.8 1.9 2.0 2.2 2.2 1.6 2.7 3.7 3.2 2.5 1.4 2.3 1.2 1.9 1.1 1.6 0.8 1.3 0.3 0.9 0.8 0.8 1.0 1.3 1.1 3.2 4.5
nan nan nan 0.0 0.1 0.0 0.4 0.6 0.1 0.2 0.5 0.9 0.9 0.7 2.0 1.0 1.8 3.1 2.2 0.2 1.5 1.1 1.5 1.9 2.8 5.2 0.6 1.4 0.8 0.8 0.9 0.6 1.4 2.0 1.6 3.1 2.2 1.1 1.0 1.3 1.2 1.2 1.2 1.6 3.5 2.7 1.7 2.1 1.3 1.1 9.6 12.0 7.9 6.3
0.0 nan 0.3 0.0 0.3 0.3 1.0 0.1 0.3 0.2 0.5 0.5 0.8 0.5 2.2 9.3 7.9 3.4 0.5 2.2 1.5 2.5 1.7 1.3 1.3 1.0 1.0 0.5 0.7 0.1 0.1 0.1 0.1 0.7 0.6 0.6 2.3 2.0 2.5 2.4 1.6 3.7 3.1 4.1 2.7 6.2 3.4 1.4 2.1 2.6 7.4 12.7 4.5 5.9
nan 0.1 0.4 0.2 1.5 4.7 10.4 0.4 0.4 0.2 2.1 1.4 0.8 1.3 3.8 4.1 2.0 0.2 3.4 1.1 3.4 2.1 1.1 0.7 0.1 0.0 0.5 0.1 0.2 0.0 0.0 0.0 0.4 0.6 1.4 1.1 1.0 5.4 2.2 2.4 2.2 6.2 5.4 2.1 1.1 2.4 3.7 2.5 3.6 11.7 7.7 9.3 14.3 19.9
nan 0.7 6.1 3.6 2.9 16.1 1.4 5.4 0.5 0.7 0.8 1.7 1.7 2.8 0.7 2.2 0.6 2.8 3.5 1.3 2.4 1.4 1.1 0.2 0.6 0.7 0.6 0.1 0.6 0.6 0.6 0.4 0.7 2.0 1.7 1.0 1.6 1.8 1.3 1.6 1.8 1.6 1.8 0.8 1.8 3.3 3.4 11.5 6.7 6.4 15.7 27.0 32.2 27.6
12.2 21.7 8.1 31.8 2.1 8.8 4.2 2.9 2.7 1.4 4.1 3.6 2.7 3.3 10.5 1.1 5.1 4.3 0.9 3.0 3.0 6.1 3.1 2.1 0.7 0.8 2.7 2.9 1.6 1.4 0.4 0.5 0.8 1.1 4.1 0.9 1.7 2.0 2.1 1.0 2.2 1.4 1.6 8.8 13.2 16.9 17.5 17.5 18.7 18.0 12.2 30.6 16.1 14.9
35.4 14.1 15.6 4.3 10.1 4.3 2.2 6.9 7.4 6.2 4.1 5.3 4.6 2.5 2.8 5.0 5.0 5.8 1.6 7.4 6.8 13.9 17.7 15.6 8.2 2.2 1.0 0.6 1.3 1.1 0.8 0.5 0.5 2.7 1.2 0.5 0.9 9.0 8.8 6.9 5.5 6.3 3.2 6.3 12.4 20.9 16.7 16.5 22.1 12.6 20.2 13.4 9.9 25.4
30.8 18.3 1.5 0.5 0.9 0.5 6.5 6.2 1.4 4.7 6.1 8.3 4.5 7.8 7.0 13.6 7.9 3.0 3.0 3.0 3.1 7.9 2.4 2.4 2.2 1.7 1.3 1.2 1.1 1.3 1.0 1.0 0.9 0.9 1.4 1.0 1.3 1.4 4.1 11.8 6.8 4.0 4.7 6.9 11.1 22.0 25.1 25.5 27.7 19.8 23.7 24.6 24.1 29.1
4.6 2.3 12.4 7.9 6.6 2.5 7.1 5.3 6.0 7.4 3.9 1.5 3.8 8.9 9.4 8.2 6.1 5.1 4.2 3.7 4.5 2.5 2.7 2.6 1.6 1.2 1.7 2.0 3.2 4.2 6.0 5.1 6.3 4.3 3.5 3.4 3.6 6.9 6.7 6.5 5.9 7.3 8.3 16.3 19.5 23.4 19.8 29.4 31.6 31.3 28.8 28.1 29.9 29.3
5.9 4.2 3.4 13.1 5.7 5.8 7.4 7.9 6.7 2.9 1.0 2.7 12.3 6.3 4.8 3.1 7.4 9.7 5.9 3.2 4.2 4.6 10.5 9.9 11.3 13.7 10.6 6.6 8.4 12.0 9.1 10.5 8.7 11.3 14.2 16.7 16.6 16.3 11.5 13.1 14.2 18.4 16.1 27.4 8.3 11.9 17.1 23.3 27.4 29.5 28.7 33.6 32.3 35.5
5.0 4.2 5.2 7.3 10.5 6.8 13.3 10.4 12.0 9.8 1.4 3.6 2.7 1.8 2.5 7.4 12.4 5.3 6.3 8.1 10.2 22.3 28.8 23.6 22.5 25.0 29.3 23.4 22.4 16.4 19.2 20.6 15.1 16.5 24.9 20.6 18.1 18.2 20.9 25.0 24.7 24.3 24.0 37.9 25.3 13.3 9.5 24.2 19.2 35.0 31.5 29.6 29.7 33.1
2.1 8.0 7.7 4.9 8.9 17.1 17.6 18.9 17.3 9.4 10.2 18.9 16.6 19.0 14.2 13.0 13.7 8.6 8.9 13.6 16.8 34.6 36.6 39.7 38.2 34.7 31.0 23.1 34.3 31.6 24.0 30.6 14.2 10.5 10.4 18.2 20.4 27.6 29.0 25.5 27.2 35.1 30.8 29.0 34.4 28.3 23.4 29.9 34.9 31.1 23.8 22.1 22.7 23.5
12.7 18.2 18.7 11.4 15.0 25.4 13.3 29.3 23.8 22.8 25.8 26.4 27.0 27.6 29.8 26.3 16.4 15.7 18.0 25.8 30.6 33.4 9.1 24.3 35.3 23.0 17.5 16.3 20.3 21.0 9.4 16.1 16.4 16.2 15.5 21.6 25.9 28.9 19.9 17.3 33.7 34.0 28.9 31.1 27.0 27.9 23.2 28.0 27.0 27.9 26.2 23.6 21.6 19.6
28.2 18.0 12.5 13.8 24.3 14.6 19.3 21.3 5.7 20.8 21.5 24.1 27.0 23.6 25.9 22.3 12.7 20.5 10.9 23.0 27.6 29.1 25.2 32.0 33.3 37.3 21.8 17.4 18.4 20.0 12.4 18.6 18.1 10.5 9.3 9.3 9.2 11.1 23.9 30.5 36.0 29.1 19.7 25.5 28.3 26.0 21.7 17.7 18.5 20.5 21.2 23.8 21.8 20.1
Water_Equivalent
nan nan nan nan nan nan nan nan nan nan nan nan nan nan nan nan nan 0.00 0.00 0.00 0.00 0.14 0.00 0.00 0.00 0.00 0.00 0.00 0.09 0.00 0.14 0.03 0.04 0.05 0.07 0.04 0.19 0.22 0.14 0.03 0.03 0.07 0.49 0.39 0.17 0.29 0.16 0.00 0.00 0.14 0.22 0.04 0.03 0.04
nan nan nan nan nan nan nan nan nan nan nan nan nan nan nan nan nan nan 0.00 0.00 0.00 0.01 0.01 0.00 0.00 0.00 0.00 0.00 0.00 0.00 0.02 0.00 0.14 0.03 0.05 0.05 0.26 0.20 0.07 0.55 0.03 0.32 0.11 0.28 0.10 0.23 0.03 0.03 0.05 0.02 0.01 0.03 0.05 0.04
nan nan nan nan nan nan nan nan nan nan nan nan nan nan nan nan nan nan 0.00 0.00 0.00 0.03 0.01 0.01 0.00 0.00 0.00 0.00 0.00 0.00 0.00 0.00 0.00 0.00 0.08 0.03 0.12 0.03 0.32 0.18 0.07 0.05 0.02 0.17 0.05 0.06 0.04 0.03 0.02 0.02 0.02 0.08 0.05 0.03
nan nan nan nan nan nan nan nan nan nan nan nan nan nan nan nan nan nan 0.00 0.00 0.00 0.00 0.79 0.07 0.00 0.00 0.00 0.00 0.00 0.00 0.00 0.00 0.00 0.00 0.03 0.15 0.33 0.03 0.36 0.13 0.16 0.28 0.05 0.05 0.10 0.32 0.03 0.05 0.13 0.06 0.07 0.07 0.07 0.09
nan nan nan nan nan nan nan nan nan nan nan nan nan nan nan nan nan nan 0.00 0.00 0.00 0.01 0.30 0.05 0.00 0.00 0.00 0.00 0.00 0.00 0.00 0.00 0.00 0.02 0.12 0.13 0.01 0.22 0.22 0.08 0.21 0.11 0.38 0.52 0.67 0.07 0.04 0.18 0.12 0.04 0.07 0.10 0.04 0.02
nan nan nan nan nan nan nan nan nan nan nan nan nan nan nan nan nan 0.00 0.64 0.00 0.00 0.00 0.49 0.52 0.00 0.00 0.00 0.00 0.00 0.00 0.00 0.00 0.00 0.00 0.05 0.00 0.00 0.06 0.94 0.26 0.08 0.08 0.10 0.07 0.26 0.04 0.04 0.10 0.07 0.03 0.03 0.05 0.02 0.02
nan nan nan nan nan nan nan nan nan nan nan nan nan nan nan nan 0.00 0.03 0.01 0.00 nan 0.00 0.08 0.39 0.34 0.00 0.00 0.00 0.00 0.00 0.00 0.00 0.00 0.00 0.02 0.00 0.00 0.09 0.47 0.59 0.17 0.26 0.24 0.06 0.02 0.01 0.09 0.06 0.20 0.03 0.02 0.01 0.01 0.00
nan nan nan nan nan nan nan nan nan nan nan nan nan nan nan nan nan 0.00 0.00 nan nan 0.00 0.00 0.46 0.24 0.30 0.00 0.02 0.04 0.00 0.00 0.00 0.00 0.00 0.03 0.02 0.07 0.17 0.74 0.30 0.15 0.08 0.06 0.03 0.02 0.00 0.01 0.00 0.00 0.01 0.00 0.00 0.00 0.00
nan nan nan nan nan nan nan nan nan nan nan nan nan nan 0.00 0.00 0.02 0.00 nan nan 0.00 0.04 0.24 0.18 0.28 1.15 0.00 0.01 0.03 0.01 0.00 0.39 0.01 0.11 0.09 0.01 0.22 0.53 0.47 0.08 0.07 0.03 0.03 0.03 0.00 0.00 0.00 0.00 0.00 0.02 0.01 0.02 0.02 0.01
nan nan nan nan nan nan nan nan nan nan nan nan 0.00 0.03 2.44 0.00 nan nan 0.01 0.40 0.17 0.05 0.00 0.17 0.04 0.24 0.07 0.10 0.11 0.10 0.06 0.14 0.24 0.19 0.02 0.15 0.40 0.01 0.02 0.01 0.01 0.00 0.00 0.00 0.00 0.01 0.00 0.00 0.01 0.03 0.04 0.04 0.03 0.02
nan nan nan nan nan nan nan nan nan nan nan 0.00 0.24 0.26 0.00 nan 0.00 0.31 0.88 0.69 0.37 0.35 0.03 0.08 0.06 0.25 0.00 0.32 0.20 0.07 0.33 0.17 0.30 0.13 0.30 0.31 0.32 0.11 0.02 0.01 0.00 0.00 0.00 0.00 0.00 0.00 0.00 0.00 0.00 0.06 0.12 0.09 0.09 0.05
nan nan nan nan nan nan nan nan nan 0.00 0.00 0.00 0.00 0.00 0.00 0.11 0.50 0.18 0.61 0.34 0.14 0.08 0.17 0.15 0.13 0.03 0.09 0.00 0.16 0.17 0.18 0.36 0.47 0.15 0.75 0.59 0.31 0.00 0.00 0.00 0.01 0.00 0.00 0.00 0.00 0.00 0.00 0.00 0.01 0.05 0.10 0.11 0.14 0.26
nan nan nan nan nan nan nan nan nan nan nan 0.00 0.00 0.08 0.22 0.82 4.63 0.79 1.17 0.65 1.67 0.24 0.35 0.24 1.01 0.08 0.11 0.01 0.23 0.17 0.92 0.94 0.14 2.02 0.32 0.40 0.04 0.01 0.02 0.01 0.01 0.00 0.00 0.00 0.01 0.01 0.01 0.07 0.07 0.26 0.32 0.67 0.75 0.70
nan nan nan nan nan nan nan nan nan 0.00 0.00 0.26 0.41 5.12 1.25 1.63 0.59 0.67 0.59 0.73 0.41 0.36 0.22 0.15 0.22 0.26 0.26 0.32 0.65 1.19 0.71 0.25 1.55 0.88 0.48 0.31 0.06 0.10 0.07 0.06 0.02 0.14 0.22 0.29 0.29 0.45 0.57 0.75 1.31 1.28 1.40 1.51 1.32 1.26
nan nan nan nan nan nan nan nan nan 0.00 0.07 0.47 0.28 2.82 1.38 0.76 0.93 1.03 0.83 0.70 0.41 0.17 0.18 0.20 0.20 0.14 0.50 1.13 0.36 0.26 1.19 1.32 0.66 0.61 0.68 0.43 0.14 0.16 0.25 0.26 0.36 0.53 0.78 0.62 0.59 0.67 1.05 0.96 1.02 0.83 1.17 0.99 0.71 1.01
nan nan 0.00 nan nan nan nan nan 0.00 0.00 0.20 0.22 0.14 0.83 0.85 1.56 3.37 2.81 1.86 1.25 0.18 0.25 0.15 0.13 0.32 0.95 1.02 0.58 0.29 0.65 0.23 0.47 0.93 1.02 0.96 0.60 0.46 0.57 0.43 0.39 0.56 0.61 0.56 0.69 0.74 0.69 0.72 0.85 0.78 0.69 0.66 0.77 1.26 1.06
nan 0.00 nan nan nan nan nan 0.01 0.18 0.14 0.40 0.07 2.72 2.90 1.77 1.59 2.74 2.31 1.10 0.35 0.14 0.28 1.56 0.26 0.63 0.34 0.19 0.64 0.16 0.30 1.35 1.04 1.48 1.10 0.66 0.41 0.63 0.68 0.77 0.68 0.74 0.51 0.53 0.59 0.63 0.56 0.59 0.74 0.63 0.33 0.32 0.50 0.28 0.34
0.00 0.00 nan nan nan nan 0.25 0.22 0.34 0.31 0.14 0.67 2.19 2.81 1.05 1.13 2.20 1.23 0.66 0.17 0.16 0.15 0.17 0.07 0.09 0.19 1.48 0.57 0.85 0.77 0.95 1.59 1.09 0.89 0.72 0.66 0.59 0.61 0.36 0.45 0.49 0.39 0.41 0.56 0.44 0.38 0.39 0.37 0.21 0.32 0.14 0.11 0.12 0.11
0.00 0.00 nan nan 0.00 0.08 0.37 0.19 0.10 0.43 1.20 0.97 0.86 0.52 0.59 1.43 0.56 0.39 0.43 0.18 0.09 0.05 0.12 0.19 0.29 0.50 0.90 0.60 1.55 2.04 1.72 0.98 0.94 0.73 0.65 0.47 0.46 0.50 0.47 0.38 0.41 0.47 0.38 0.32 0.14 0.23 0.20 0.05 0.11 0.14 0.15 0.13 0.32 0.27
nan nan nan nan nan 0.07 0.03 0.27 0.02 0.06 0.44 0.62 0.31 0.37 0.36 0.72 0.38 1.18 0.69 0.16 0.09 0.14 0.20 0.27 0.74 0.68 0.50 0.57 0.42 0.43 0.44 0.45 0.31 0.44 0.55 0.49 0.43 0.20 0.33 0.22 0.33 0.18 0.24 0.12 0.21 0.07 0.17 0.14 0.15 0.19 0.23 0.20 0.52 0.75
nan nan nan 0.00 0.04 0.00 0.11 0.15 0.04 0.07 0.13 0.22 0.26 0.23 0.46 0.33 0.48 0.82 0.62 0.08 0.43 0.26 0.29 0.36 0.59 1.11 0.13 0.31 0.20 0.19 0.19 0.14 0.29 0.47 0.31 0.41 0.36 0.20 0.19 0.26 0.24 0.24 0.23 0.27 0.64 0.44 0.34 0.36 0.23 0.20 1.95 2.40 1.54 1.25
0.01 nan 0.12 0.02 0.10 0.09 0.30 0.03 0.09 0.06 0.15 0.16 0.23 0.14 0.61 2.17 1.86 0.84 0.16 0.57 0.31 0.48 0.34 0.27 0.27 0.20 0.20 0.10 0.15 0.02 0.02 0.01 0.03 0.17 0.16 0.12 0.38 0.33 0.39 0.41 0.31 0.57 0.51 0.71 0.49 1.09 0.61 0.25 0.40 0.50 1.38 2.42 0.87 1.02
nan 0.03 0.13 0.06 0.40 1.06 2.13 0.11 0.10 0.06 0.56 0.39 0.25 0.32 0.91 1.00 0.53 0.08 0.78 0.23 0.65 0.40 0.23 0.14 0.03 0.01 0.09 0.02 0.04 0.01 0.00 0.00 0.10 0.14 0.29 0.22 0.20 1.10 0.40 0.41 0.43 1.06 0.84 0.34 0.22 0.47 0.67 0.73 0.71 2.11 1.45 1.54 2.39 3.35
nan 0.17 1.48 0.98 0.73 2.89 0.45 1.41 0.12 0.20 0.23 0.46 0.48 0.62 0.16 0.54 0.17 0.65 0.70 0.25 0.43 0.28 0.21 0.04 0.15 0.15 0.14 0.03 0.13 0.13 0.14 0.11 0.15 0.41 0.39 0.21 0.28 0.28 0.24 0.29 0.34 0.33 0.38 0.16 0.36 0.65 0.67 2.16 1.95 1.05 2.50 4.59 5.52 4.49
1.90 3.38 2.12 4.18 0.63 2.20 0.98 0.68 0.66 0.36 0.91 0.90 0.61 0.78 1.98 0.32 1.07 0.86 0.18 0.54 0.52 1.03 0.51 0.45 0.19 0.20 0.56 0.59 0.30 0.26 0.07 0.11 0.17 0.19 0.77 0.19 0.35 0.37 0.35 0.18 0.40 0.25 0.32 1.62 2.21 2.94 2.91 2.89 3.08 2.92 1.80 5.14 2.43 2.16
4.53 3.20 3.25 1.17 2.36 1.16 0.59 1.39 1.47 1.40 0.91 1.08 1.03 0.55 0.77 1.19 0.98 1.02 0.29 1.36 1.17 2.42 3.13 2.93 1.66 0.43 0.20 0.14 0.22 0.19 0.14 0.12 0.13 0.51 0.21 0.11 0.18 1.42 1.33 0.97 0.74 0.89 0.56 1.23 2.25 3.80 2.80 2.54 3.55 1.82 3.09 2.04 2.51 3.85
3.83 3.37 0.38 0.15 0.25 0.15 1.45 1.57 0.40 1.10 1.17 1.45 0.94 1.51 1.59 2.17 1.38 0.47 0.49 0.50 0.51 1.27 0.46 0.49 0.50 0.35 0.25 0.21 0.19 0.22 0.19 0.21 0.17 0.17 0.26 0.20 0.23 0.27 0.75 1.74 0.98 0.61 0.81 1.27 2.10 4.38 4.34 4.12 4.39 2.93 3.54 3.79 3.61 4.40
0.92 0.52 1.64 1.72 1.30 0.60 1.36 1.05 1.19 1.38 0.84 0.34 0.78 1.52 1.64 1.51 0.94 0.72 0.57 0.63 0.82 0.47 0.51 0.51 0.33 0.24 0.31 0.33 0.48 0.59 0.81 0.72 0.94 0.69 0.55 0.52 0.53 0.97 0.96 1.01 0.92 2.41 1.40 2.88 3.62 3.94 3.10 4.66 4.98 4.88 4.19 4.17 4.20 4.28
1.06 1.00 0.77 1.50 0.92 1.05 1.29 1.45 1.22 0.54 0.19 0.61 2.51 1.11 0.77 0.45 1.03 1.37 0.78 0.50 0.79 0.83 1.51 1.39 1.50 2.07 1.43 0.95 1.22 1.75 1.18 1.43 1.27 1.41 1.94 1.95 2.02 1.81 1.23 1.49 1.64 2.21 2.10 3.73 2.74 2.73 2.64 3.34 3.85 4.03 4.41 4.83 4.64 5.02
0.89 1.11 1.01 1.22 1.14 0.96 2.27 1.76 2.30 1.78 0.23 0.63 0.51 0.30 0.35 0.94 1.45 0.74 0.88 1.14 1.46 3.27 4.87 4.06 3.68 4.16 4.76 3.29 2.83 2.02 2.89 3.36 2.33 2.59 3.60 2.57 2.14 2.11 2.49 3.17 3.15 3.07 3.02 5.56 3.16 1.47 2.54 3.35 3.80 4.87 4.13 3.71 3.72 4.27
0.53 1.93 1.55 1.02 1.52 3.12 3.02 3.52 3.48 1.72 1.90 3.54 3.19 3.44 2.24 1.70 1.68 0.95 1.03 1.50 2.04 5.62 6.08 6.38 6.17 6.30 4.99 3.09 5.13 4.49 3.00 4.76 1.91 1.36 1.31 2.13 2.44 3.56 3.81 3.20 3.50 4.86 4.12 3.79 4.68 3.57 2.76 3.77 4.66 4.09 2.89 2.56 2.57 2.66
2.38 3.63 2.84 1.48 2.47 4.65 2.50 5.64 4.38 3.98 4.91 4.50 4.66 4.44 4.84 3.90 2.20 1.70 1.95 3.31 4.14 4.82 2.67 3.89 5.94 2.86 2.55 2.34 3.00 3.06 2.93 1.84 1.87 1.84 1.95 2.59 3.26 3.76 2.36 1.96 4.56 4.65 3.73 4.01 3.33 3.42 2.74 3.48 3.28 3.43 3.10 2.71 2.43 2.16
5.51 3.54 2.24 2.29 4.32 2.60 3.18 3.84 1.00 3.64 3.22 3.73 4.31 3.52 4.03 3.12 1.48 2.39 1.13 2.83 3.69 3.91 3.24 4.46 4.69 5.67 2.89 2.34 2.17 2.36 2.75 2.14 2.74 3.46 3.06 3.06 3.03 2.92 2.90 4.01 4.96 3.69 2.25 3.11 3.49 3.10 2.50 1.96 2.05 2.34 2.39 2.73 2.46 2.23
SL_Ratio
nan nan nan nan nan nan nan nan nan nan nan nan nan nan nan nan nan nan nan nan 5.0 3.0 nan nan nan nan nan nan 4.0 nan 3.8 3.6 2.7 3.3 3.8 3.3 3.8 5.1 5.3 5.6 5.7 6.4 5.8 5.3 5.6 6.7 7.2 nan nan 4.7 5.0 4.6 4.0 4.4
nan nan nan nan nan nan nan nan nan nan nan nan nan nan nan nan nan nan nan nan nan 4.7 3.9 nan nan nan nan nan 2.2 nan 3.8 4.3 3.3 4.1 3.8 2.9 4.3 3.1 5.0 5.6 5.3 5.7 5.2 5.9 6.6 5.8 5.2 5.3 5.5 4.6 3.9 4.4 4.9 4.6
nan nan nan nan nan nan nan nan nan nan nan nan nan nan nan nan nan nan nan nan nan 2.6 3.1 5.2 nan nan nan nan nan 0.0 nan nan 0.0 nan 3.3 3.0 5.4 3.0 4.3 4.5 5.1 4.0 4.2 4.8 4.8 5.0 5.4 5.2 4.7 4.1 4.4 4.7 4.6 4.5
nan nan nan nan nan nan nan nan nan nan nan nan nan nan nan nan nan nan nan nan nan nan 4.1 4.6 nan nan nan nan nan nan nan nan nan nan 2.5 3.1 4.1 3.7 4.1 4.1 4.3 3.6 4.1 5.5 5.3 4.1 5.1 4.6 4.3 4.5 4.8 4.5 4.8 4.9
nan nan nan nan nan nan nan nan nan nan nan nan nan nan nan nan nan nan nan nan nan 4.2 4.4 5.2 nan nan nan nan nan nan nan nan nan 2.8 2.6 3.7 2.9 3.6 3.5 4.5 4.2 4.1 5.0 4.3 4.9 3.9 4.5 5.0 4.7 4.3 4.8 5.3 5.1 5.3
nan nan nan nan nan nan nan nan nan nan nan nan nan nan nan nan nan nan 2.8 nan nan nan 4.2 5.5 0.0 nan nan nan nan nan nan nan nan nan 2.8 2.0 nan 3.6 3.9 4.9 4.5 3.7 3.8 3.9 4.0 4.1 4.2 4.7 4.8 4.6 5.1 5.2 5.1 5.3
nan nan nan nan nan nan nan nan nan nan nan nan nan nan nan nan nan 4.1 4.5 nan nan nan 4.2 5.6 6.1 nan nan nan nan nan nan nan nan nan 2.7 nan nan 3.5 4.0 5.0 4.8 4.3 4.1 4.1 3.8 4.1 6.2 5.0 5.9 4.9 4.7 4.9 4.5 nan
nan nan nan nan nan nan nan nan nan nan nan nan nan nan nan nan nan nan nan nan nan nan 5.0 4.7 4.5 4.4 nan 2.5 2.5 nan 2.2 2.9 3.3 nan 2.5 2.6 3.4 3.9 5.4 5.4 5.2 4.8 4.5 4.5 4.3 3.6 4.8 10.0 5.7 5.8 nan nan nan 2.9
nan nan nan nan nan nan nan nan nan nan nan nan nan nan nan nan 4.1 6.7 nan nan nan 4.2 5.0 3.7 3.1 4.4 0.0 2.6 2.5 2.8 1.7 4.4 5.5 3.3 2.6 2.7 3.7 5.0 5.5 5.3 5.2 5.0 5.0 5.0 4.3 nan 10.0 nan 10.0 6.7 6.8 7.1 7.5 7.8
nan nan nan nan nan nan nan nan nan nan nan nan nan 4.2 3.3 3.8 nan nan 2.8 3.2 3.2 3.9 5.0 3.5 3.2 2.8 3.2 2.6 2.7 3.5 2.8 3.2 3.3 3.1 3.5 3.0 4.1 4.6 5.0 4.9 4.9 nan nan nan 6.7 6.9 6.7 7.8 7.0 7.1 7.2 7.2 7.4 7.7
nan nan nan nan nan nan nan nan nan nan nan 0.0 3.0 2.9 nan nan nan 4.0 4.5 5.0 5.0 5.5 3.8 3.1 3.1 3.5 nan 3.3 2.8 2.7 2.9 2.5 2.9 3.2 3.3 4.1 4.5 4.4 5.0 5.2 nan nan nan nan nan nan nan nan 6.0 7.0 7.1 7.1 7.3 7.1
nan nan nan nan nan nan nan nan nan nan nan nan nan nan 2.5 2.6 3.8 5.2 3.4 3.1 4.7 4.2 2.7 2.6 2.6 3.1 2.5 nan 3.0 2.8 3.1 3.1 3.7 3.2 3.3 4.1 5.2 nan nan 0.0 5.2 nan nan nan nan 5.0 5.0 5.0 5.8 6.7 6.8 7.1 7.4 7.2
nan nan nan nan nan nan nan nan nan nan nan nan nan 3.2 3.6 3.5 5.7 3.1 3.7 3.1 3.0 2.6 2.5 2.5 2.6 2.5 2.8 2.5 2.6 2.5 3.0 3.6 3.0 3.7 4.3 4.9 4.8 4.9 4.7 4.5 4.7 nan nan nan 4.5 4.4 4.9 6.1 5.9 6.2 7.6 6.9 7.0 8.2
nan nan nan nan nan nan nan nan nan nan nan 3.6 3.8 5.9 3.1 3.1 3.4 3.7 3.5 3.2 2.7 2.5 2.5 2.5 2.5 2.8 2.7 2.7 2.8 2.9 3.1 2.9 3.8 4.2 4.9 4.9 4.9 4.8 4.8 4.8 4.7 5.5 5.2 5.5 5.8 5.5 6.1 6.8 7.3 6.9 6.7 6.9 7.1 7.6
nan nan nan nan nan nan nan nan nan nan 3.0 4.2 3.8 5.2 4.3 3.5 3.1 2.8 2.5 2.6 2.7 2.6 2.6 2.7 2.8 3.3 2.9 3.0 3.0 2.9 3.6 3.8 4.0 4.5 4.7 4.6 5.1 5.1 5.4 5.5 5.8 6.3 6.5 6.7 6.6 7.7 7.5 7.7 7.5 8.4 7.8 7.9 8.1 7.9
nan nan nan nan nan nan nan nan nan nan 3.3 4.0 4.1 4.1 3.3 3.6 3.6 3.0 2.7 2.7 2.5 2.7 2.5 2.7 3.2 3.3 3.6 3.4 3.7 3.7 4.0 4.6 4.7 4.9 5.3 5.2 5.7 5.8 5.9 6.0 6.1 6.0 6.3 6.7 7.1 8.0 8.2 8.1 8.3 9.3 8.8 8.5 7.6 7.3
nan nan nan nan nan nan nan 2.7 2.8 4.1 3.7 4.4 4.2 3.1 3.6 3.4 3.7 3.4 2.9 3.1 2.6 2.6 2.9 2.9 3.8 4.0 3.5 4.1 4.4 4.3 4.5 4.8 4.9 5.4 5.6 5.5 5.8 5.9 6.0 6.4 6.8 7.1 7.2 7.3 8.2 8.5 8.6 8.3 8.3 9.2 9.8 9.9 9.8 8.9
nan nan nan nan nan nan 2.8 3.2 3.9 4.1 4.9 4.3 4.9 4.2 3.9 3.6 3.2 3.2 3.0 3.0 2.6 3.0 3.1 3.8 3.3 4.1 4.0 4.9 4.8 4.9 5.3 5.2 5.0 5.7 6.0 5.3 5.4 5.9 6.1 6.7 7.0 7.2 7.6 8.5 8.7 8.7 8.6 8.5 8.9 6.7 8.4 8.4 8.2 8.2
nan nan nan nan nan 3.4 4.0 4.1 3.6 4.7 4.9 4.2 4.1 4.1 3.7 3.7 3.7 3.6 3.0 2.8 2.6 2.4 3.2 3.6 3.9 4.9 4.8 4.9 4.6 4.5 5.0 5.5 6.6 6.5 6.9 6.9 6.4 6.7 6.9 6.9 7.2 8.2 8.8 8.6 7.3 6.2 6.3 6.4 5.3 5.0 5.1 5.4 5.5 5.9
nan nan nan nan nan 2.9 4.8 4.0 2.5 3.8 4.2 4.9 3.6 3.8 3.9 4.2 3.5 3.1 2.8 2.8 2.8 3.3 3.8 4.4 4.8 5.1 5.0 4.9 4.6 4.7 4.9 4.8 5.2 6.0 6.7 6.7 5.9 6.8 6.9 5.7 5.7 6.2 6.6 7.2 6.3 4.8 5.5 5.5 5.3 5.5 5.5 5.5 6.1 6.1
nan nan nan nan 2.9 5.0 3.5 3.9 3.1 2.9 3.8 4.2 3.4 3.1 4.4 3.2 3.8 3.7 3.5 2.8 3.5 4.1 5.0 5.2 4.7 4.6 4.8 4.6 3.8 3.9 4.7 4.4 4.9 4.2 5.1 7.6 6.2 5.4 5.4 5.1 5.0 5.1 5.2 5.7 5.4 6.2 5.1 5.9 5.9 5.5 4.9 5.0 5.1 5.0
2.5 nan 2.5 2.5 3.2 3.6 3.4 3.2 3.7 3.1 3.6 3.3 3.6 3.1 3.6 4.3 4.2 4.0 3.2 3.9 4.8 5.3 5.0 4.8 5.0 4.9 5.0 5.1 5.0 4.2 4.8 4.3 5.0 4.2 3.8 5.0 6.1 6.0 6.4 5.8 5.4 6.5 6.0 5.7 5.5 5.7 5.6 5.7 5.3 5.2 5.4 5.2 5.2 5.7
nan 2.6 3.3 2.9 3.8 4.5 4.9 3.6 3.6 3.3 3.8 3.7 3.1 3.9 4.1 4.2 3.8 2.9 4.3 4.6 5.2 5.4 4.7 4.6 4.6 4.0 4.8 5.1 4.7 4.1 3.3 nan 4.0 4.6 4.9 5.1 5.2 4.9 5.5 5.9 5.2 5.9 6.5 6.2 5.1 5.2 5.4 3.4 5.1 5.6 5.3 6.0 6.0 5.9
nan 4.2 4.1 3.7 4.0 5.6 3.1 3.8 3.8 3.7 3.3 3.6 3.6 4.5 4.5 4.0 3.5 4.3 5.1 5.3 5.7 5.1 5.0 5.4 3.9 4.3 4.1 4.6 4.5 4.6 4.2 3.8 4.6 4.8 4.4 4.8 6.0 6.4 5.3 5.6 5.3 5.0 4.9 4.8 5.0 5.0 5.1 5.3 3.4 6.2 6.3 5.9 5.8 6.1
6.4 6.4 3.8 7.6 3.2 4.0 4.3 4.3 4.2 3.8 4.5 4.0 4.5 4.2 5.3 3.4 4.8 5.0 5.0 5.6 5.7 5.9 6.2 4.7 3.9 4.0 4.8 4.9 5.2 5.5 5.5 4.1 4.8 5.9 5.3 4.6 5.0 5.4 6.1 5.4 5.6 5.5 4.9 5.4 6.0 5.7 6.0 6.0 6.1 6.2 6.8 6.0 6.6 6.9
7.8 4.4 4.8 3.7 4.3 3.7 3.8 5.0 5.0 4.4 4.5 5.0 4.5 4.5 3.6 4.2 5.1 5.7 5.5 5.5 5.8 5.7 5.7 5.3 4.9 5.0 5.3 4.8 5.8 5.9 5.6 4.1 3.9 5.3 5.7 4.6 5.0 6.3 6.6 7.1 7.4 7.0 5.7 5.1 5.5 5.5 5.9 6.5 6.2 6.9 6.5 6.5 3.9 6.6
8.0 5.4 4.0 3.4 3.8 3.3 4.5 4.0 3.5 4.3 5.2 5.7 4.8 5.2 4.4 6.3 5.7 6.3 6.1 5.9 6.0 6.2 5.2 4.8 4.4 4.7 5.2 5.7 5.6 5.8 5.1 5.0 5.2 5.4 5.3 5.3 5.7 5.3 5.4 6.8 6.9 6.6 5.8 5.4 5.3 5.0 5.8 6.2 6.3 6.8 6.7 6.5 6.7 6.6
5.0 4.5 7.6 4.6 5.1 4.2 5.2 5.0 5.0 5.4 4.6 4.3 4.9 5.8 5.7 5.4 6.5 7.0 7.4 5.9 5.5 5.3 5.3 5.1 4.9 4.9 5.5 6.2 6.7 7.2 7.4 7.1 6.7 6.3 6.4 6.6 6.8 7.1 7.0 6.4 6.4 3.0 5.9 5.7 5.4 5.9 6.4 6.3 6.3 6.4 6.9 6.7 7.1 6.8
5.6 4.2 4.4 8.7 6.2 5.5 5.7 5.4 5.5 5.4 5.6 4.4 4.9 5.7 6.2 6.8 7.2 7.1 7.5 6.4 5.3 5.6 7.0 7.1 7.5 6.6 7.4 6.9 6.9 6.9 7.7 7.3 6.9 8.1 7.3 8.6 8.2 9.0 9.3 8.8 8.7 8.3 7.6 7.3 3.0 4.4 6.5 7.0 7.1 7.3 6.5 7.0 7.0 7.1
5.6 3.8 5.1 6.0 9.2 7.0 5.8 5.9 5.2 5.5 5.8 5.6 5.2 6.1 7.2 7.8 8.5 7.2 7.2 7.1 7.0 6.8 5.9 5.8 6.1 6.0 6.2 7.1 7.9 8.1 6.7 6.1 6.5 6.4 6.9 8.0 8.5 8.6 8.4 7.9 7.9 7.9 7.9 6.8 8.0 9.1 3.7 7.2 5.0 7.2 7.6 8.0 8.0 7.7
4.0 4.1 4.9 4.8 5.9 5.5 5.8 5.4 5.0 5.5 5.3 5.3 5.2 5.5 6.3 7.7 8.1 9.1 8.6 9.0 8.2 6.1 6.0 6.2 6.2 5.5 6.2 7.5 6.7 7.0 8.0 6.4 7.4 7.7 7.9 8.5 8.4 7.8 7.6 8.0 7.8 7.2 7.5 7.7 7.3 7.9 8.5 7.9 7.5 7.6 8.2 8.6 8.9 8.8
5.4 5.0 6.6 7.7 6.1 5.5 5.3 5.2 5.4 5.7 5.3 5.9 5.8 6.2 6.2 6.7 7.5 9.2 9.2 7.8 7.4 6.9 3.4 6.2 5.9 8.0 6.9 7.0 6.8 6.9 3.2 8.8 8.7 8.8 7.9 8.3 7.9 7.7 8.5 8.8 7.4 7.3 7.8 7.8 8.1 8.2 8.5 8.0 8.2 8.1 8.4 8.7 8.9 9.1
5.1 5.1 5.6 6.1 5.6 5.6 6.1 5.6 5.8 5.7 6.7 6.4 6.3 6.7 6.4 7.2 8.5 8.6 9.6 8.1 7.5 7.4 7.8 7.2 7.1 6.6 7.5 7.4 8.5 8.5 4.5 8.7 6.6 3.0 3.0 3.0 3.0 3.8 8.2 7.6 7.2 7.9 8.7 8.2 8.1 8.4 8.7 9.0 9.0 8.8 8.9 8.7 8.9 9.0